{"data":{"norad_id":67689,"epoch":"2026-09-19T22:43:20.783712Z","epoch_age_seconds":59056,"freshness":"FRESH","line1":"1 67689U 26024A   26262.94676833 -.00000073  00000+0  16783-4 0  9993","line2":"2 67689  49.9938 190.8482 0005281  44.4290 315.7074 14.91922781 33581","mean_motion":14.91922781,"eccentricity":0.0005281,"inclination_deg":49.9938,"raan_deg":190.8482,"arg_perigee_deg":44.429,"mean_anomaly_deg":315.7074,"bstar":1.6783e-5,"rev_number":3358,"period_min":96.519740722425,"perigee_km":588.25966577505,"apogee_km":595.62146169787,"semimajor_km":6970.0775637365,"source":"CELESTRAK","updated_at":"2026-09-20T09:00:23.727028Z"}}